Wind_Speed
10 9 9 10 9 8 8 7 8 7 7 6 6 6 5 5 5 7 8 9 10 10 10 9 9 9 9 9 8 8 7 7 7 6 6 5 5 6 5 4 3 3 3
11 9 9 9 10 8 7 8 8 7 7 7 7 6 5 5 6 6 8 9 10 10 10 10 10 10 10 9 10 10 9 9 8 8 7 7 7 7 7 6 5 5 4
13 9 9 10 10 10 9 9 8 7 8 7 7 7 6 6 6 7 8 10 10 11 11 11 11 11 11 10 10 11 11 10 10 9 9 8 8 8 8 8 8 8 7
13 11 10 10 9 10 9 9 8 8 7 7 7 6 6 6 7 8 9 11 11 12 12 12 12 11 11 11 12 12 12 11 11 11 10 10 9 9 9 9 9 9 8
14 12 11 10 10 10 9 8 8 8 7 7 7 7 7 7 8 8 9 10 12 13 13 13 13 13 12 12 12 13 12 13 13 12 12 11 11 11 11 11 11 11 11
14 12 10 11 10 8 7 8 8 7 7 7 7 7 7 8 8 9 9 11 13 14 14 14 15 14 14 13 13 13 14 14 14 14 13 13 13 13 12 12 12 12 13
14 12 11 11 10 8 8 8 8 7 7 8 8 8 8 8 9 9 10 11 13 15 16 15 16 15 15 15 15 14 15 15 15 15 15 14 14 14 14 14 13 13 14
14 11 11 11 10 9 8 8 9 8 8 9 9 9 8 8 9 10 10 10 12 14 15 15 16 16 16 16 16 16 16 17 16 16 16 16 16 16 16 16 16 15 15
12 12 11 10 9 9 9 9 9 9 9 9 8 8 9 9 8 9 10 11 12 14 15 16 17 17 18 17 18 18 17 18 18 18 18 18 18 18 18 18 19 18 18
12 12 11 10 9 9 10 10 11 10 10 9 9 8 9 8 8 9 10 10 12 13 15 16 18 18 19 19 19 19 18 18 19 19 20 21 21 21 21 21 21 21 20
12 11 11 10 9 10 10 11 11 10 10 10 10 9 8 8 9 9 10 11 12 13 14 16 18 19 20 20 21 21 20 20 21 21 21 21 22 23 23 23 23 23 23
10 10 11 11 10 10 11 11 10 10 10 10 10 10 10 10 10 10 10 11 12 13 14 16 17 19 20 21 22 22 22 22 23 23 23 23 24 24 24 24 24 24 24
10 10 12 12 11 11 11 11 10 12 12 12 11 11 11 11 12 11 12 12 13 14 15 16 17 18 20 21 21 22 23 22 22 23 22 23 24 25 25 25 25 25 25
12 11 12 12 11 11 11 11 12 13 13 13 13 13 13 13 13 13 13 13 14 14 15 16 17 19 21 21 22 22 22 22 22 21 22 23 24 24 25 26 26 27 27
13 13 13 13 12 11 11 12 13 14 14 14 14 14 14 14 14 14 15 15 15 15 16 16 17 17 19 20 21 22 22 21 22 22 22 23 24 25 25 26 26 27 28
15 14 14 13 12 11 12 13 14 15 15 15 15 15 14 14 14 14 15 15 16 16 16 16 16 16 17 18 18 19 19 20 20 21 22 23 23 24 25 25 26 26 28
16 16 16 14 14 14 13 14 15 16 16 16 15 14 14 15 15 15 15 15 15 15 15 15 15 15 15 16 16 17 18 19 20 20 21 22 23 24 25 26 26 26 27
16 16 17 16 17 16 15 16 16 17 16 16 15 15 15 15 15 15 15 15 15 15 15 15 15 15 15 16 16 17 18 19 20 21 23 23 24 26 26 27 27 27 28
18 17 18 18 18 18 17 17 17 17 17 17 16 16 15 16 15 15 15 15 15 15 15 15 15 15 16 16 16 17 19 20 21 22 23 24 25 25 26 27 27 27 27
19 19 19 20 20 19 19 18 18 18 18 18 17 17 16 16 15 15 14 15 15 15 15 15 15 16 16 17 17 18 19 21 22 23 24 24 25 25 26 26 27 28 29
19 19 20 20 20 20 20 20 20 20 19 19 19 18 18 17 16 15 15 15 16 16 16 17 17 17 18 18 19 20 21 22 22 24 24 25 25 26 27 28 29 29 30
19 20 20 19 20 20 20 20 20 21 20 20 19 19 18 17 16 16 16 16 16 16 17 18 18 18 18 19 20 21 22 22 23 24 25 25 26 27 29 30 30 30 31
20 20 20 20 20 20 20 21 21 21 20 20 19 19 18 18 18 18 18 18 18 18 18 18 18 19 20 20 22 22 22 23 24 25 26 27 28 29 29 30 31 32 33
20 20 21 21 21 21 21 21 21 21 21 20 20 20 19 19 19 19 18 18 18 18 18 18 19 20 20 21 22 23 24 24 25 26 27 28 29 30 31 31 32 33 34
21 21 21 22 22 22 22 22 22 21 21 21 20 20 19 19 19 19 19 19 19 20 19 20 20 20 21 22 22 24 24 25 26 27 28 29 30 31 31 32 34 34 35
22 22 22 23 23 23 23 22 21 21 21 21 20 20 20 20 19 19 19 19 19 20 20 20 20 20 21 21 22 23 24 26 27 28 29 30 31 32 33 33 34 34 35
Wind_Direction
332 334 332 332 332 329 331 336 335 330 322 308 305 302 293 274 249 229 220 217 216 218 222 225 227 227 227 229 225 223 230 231 233 236 238 241 236 233 233 236 247 251 254
326 323 324 326 331 331 325 325 330 329 321 308 300 292 282 266 244 229 221 221 223 222 223 226 229 231 230 231 227 227 230 232 233 237 238 234 233 234 238 244 248 251 255
326 327 327 324 325 323 322 321 321 319 313 305 302 288 275 265 248 234 229 226 229 226 227 229 229 232 234 233 228 228 230 233 234 236 238 237 233 237 241 245 248 249 253
325 326 323 320 323 320 313 314 312 311 306 299 299 295 276 265 257 243 238 232 233 233 233 233 232 233 235 234 231 231 231 235 236 238 240 241 240 243 246 248 250 252 253
325 321 318 321 318 313 306 306 305 307 305 299 297 289 272 266 264 255 246 238 240 239 237 237 235 235 235 235 236 237 236 236 237 239 242 243 243 244 247 251 253 252 253
318 314 315 316 314 310 308 310 311 307 307 300 294 286 274 266 264 259 251 248 245 242 242 243 241 238 239 239 239 240 239 239 239 242 244 245 244 245 248 250 253 253 253
316 309 309 311 307 305 310 312 312 305 306 305 296 284 277 272 265 262 258 255 249 243 242 245 245 243 243 240 241 242 241 242 244 244 245 245 247 248 250 251 254 256 256
309 308 313 309 308 307 310 312 312 307 305 304 299 285 277 275 272 268 261 258 253 245 243 246 247 246 247 245 245 246 246 246 247 248 248 248 251 253 253 254 257 258 259
309 309 312 307 307 307 309 312 311 308 304 302 297 287 281 280 276 271 265 256 252 249 248 249 250 250 250 247 248 250 249 249 249 249 250 251 253 255 256 258 260 261 261
305 308 307 299 296 300 304 309 307 305 303 295 290 287 285 281 276 274 271 262 256 256 254 252 249 250 250 247 249 250 250 250 252 253 254 255 255 257 257 260 263 263 263
296 301 303 296 297 302 302 306 307 303 301 294 287 285 285 281 280 278 273 267 264 262 259 256 252 252 252 250 249 250 252 252 253 254 256 258 258 260 259 261 264 265 265
291 298 300 301 303 300 299 306 306 305 304 299 292 286 285 282 284 282 281 277 272 267 262 260 257 254 254 254 253 251 252 254 254 255 256 258 259 261 262 263 265 265 265
294 302 301 302 305 300 299 307 305 305 307 307 299 293 291 289 283 281 281 279 276 270 266 263 258 258 258 258 255 253 253 256 256 255 256 259 261 261 262 263 265 267 267
308 310 308 309 304 300 303 307 306 305 306 305 302 295 293 287 283 280 279 278 276 273 271 269 267 264 260 259 256 253 255 255 255 256 257 259 261 262 264 265 266 267 268
303 305 307 307 305 296 300 306 311 309 307 306 305 300 294 286 282 280 278 277 275 273 272 271 272 270 263 260 259 257 257 257 257 258 258 258 262 265 266 268 269 267 267
295 301 303 302 298 296 301 307 310 311 309 308 306 302 296 292 285 283 282 277 275 273 274 274 273 271 266 262 258 257 258 258 259 260 262 264 269 269 268 270 271 270 270
289 296 299 300 302 301 301 304 306 308 309 307 305 301 295 293 288 284 283 283 280 277 276 274 275 273 267 263 259 257 258 259 260 263 265 267 270 273 273 275 277 276 275
287 291 293 295 297 298 298 300 301 303 305 306 303 299 297 296 292 289 286 283 282 280 278 274 273 273 270 265 262 263 264 263 263 265 266 268 270 274 276 277 278 278 277
282 285 288 292 293 295 296 297 296 296 298 301 302 299 296 296 295 290 286 281 282 279 275 273 273 274 273 270 268 268 268 268 269 269 270 272 274 276 277 277 278 279 279
277 280 284 288 290 292 293 293 291 292 293 295 297 298 296 296 295 291 286 283 282 280 279 278 277 278 277 275 273 272 273 273 274 275 273 273 275 276 278 279 279 279 279
276 279 283 286 289 291 292 292 291 291 291 291 292 292 294 294 295 293 291 288 285 282 280 278 278 279 279 278 277 275 276 276 276 277 276 276 276 277 279 280 281 283 284
277 279 282 285 288 288 289 290 291 290 291 290 289 290 291 291 292 292 291 290 286 281 280 279 280 280 281 281 280 281 280 279 277 277 278 278 277 278 280 282 283 284 285
275 277 280 284 287 288 288 288 289 290 290 289 289 289 290 288 288 289 289 291 290 287 285 283 282 282 282 283 283 282 283 282 280 280 281 281 280 280 282 284 285 284 285
272 276 279 282 285 287 287 288 287 288 288 287 288 288 288 288 287 288 287 287 289 289 287 285 285 285 284 283 282 281 283 283 283 282 282 284 284 284 284 285 286 286 287
274 277 280 282 285 286 286 286 286 286 286 286 286 285 285 287 287 287 287 285 286 287 287 286 287 288 287 286 284 283 284 285 284 284 284 286 287 287 287 287 288 288 288
273 276 279 281 282 284 285 285 285 286 285 285 284 285 286 288 289 289 288 285 286 287 288 289 290 289 289 288 288 287 286 286 286 286 286 286 286 288 289 289 290 290 291
Height
5899 5897 5896 5895 5893 5892 5891 5890 5889 5888 5888 5887 5887 5886 5886 5886 5886 5886 5887 5888 5890 5891 5892 5894 5895 5896 5896 5896 5897 5898 5898 5899 5899 5900 5900 5901 5901 5901 5901 5900 5900 5900 5900
5897 5895 5895 5893 5892 5891 5890 5889 5888 5887 5886 5885 5885 5885 5884 5884 5884 5885 5886 5887 5888 5889 5890 5892 5893 5894 5894 5895 5895 5896 5897 5898 5898 5899 5899 5899 5900 5900 5900 5900 5900 5899 5899
5894 5893 5893 5892 5891 5890 5889 5887 5887 5886 5885 5884 5883 5883 5883 5882 5882 5883 5884 5885 5885 5887 5888 5889 5890 5891 5892 5892 5893 5894 5895 5896 5897 5897 5898 5898 5899 5899 5899 5899 5899 5899 5898
5893 5893 5892 5890 5889 5888 5887 5886 5885 5884 5883 5882 5881 5881 5881 5881 5881 5881 5881 5882 5883 5884 5886 5887 5888 5889 5889 5890 5891 5892 5893 5894 5894 5895 5896 5897 5897 5897 5897 5897 5897 5897 5897
5892 5891 5890 5888 5886 5885 5884 5883 5882 5882 5881 5880 5880 5879 5879 5879 5879 5879 5879 5880 5881 5882 5883 5884 5885 5886 5887 5887 5888 5889 5890 5891 5892 5892 5893 5894 5894 5895 5895 5895 5895 5895 5895
5890 5889 5888 5887 5884 5882 5881 5881 5880 5879 5879 5878 5877 5877 5877 5877 5877 5877 5877 5877 5878 5879 5880 5881 5882 5883 5884 5885 5885 5886 5887 5888 5888 5889 5890 5890 5891 5892 5892 5892 5892 5893 5893
5889 5887 5886 5884 5883 5881 5879 5878 5878 5877 5876 5876 5875 5875 5875 5875 5875 5875 5875 5875 5875 5876 5877 5878 5879 5880 5881 5881 5882 5883 5883 5884 5885 5886 5886 5887 5888 5888 5889 5889 5889 5889 5889
5886 5885 5883 5882 5880 5879 5877 5876 5875 5875 5874 5873 5872 5872 5872 5872 5872 5872 5872 5872 5872 5872 5873 5874 5875 5876 5877 5878 5879 5879 5880 5881 5881 5882 5883 5883 5884 5884 5885 5885 5885 5885 5886
5884 5882 5881 5879 5878 5877 5876 5875 5873 5872 5871 5870 5869 5868 5869 5869 5869 5869 5868 5868 5869 5869 5869 5870 5871 5872 5873 5874 5875 5875 5876 5877 5877 5878 5879 5879 5880 5880 5881 5881 5881 5881 5881
5881 5879 5878 5876 5876 5875 5874 5873 5871 5870 5869 5868 5867 5866 5866 5866 5866 5866 5865 5865 5865 5865 5865 5866 5866 5867 5868 5869 5870 5871 5872 5872 5873 5873 5874 5874 5875 5875 5876 5876 5876 5876 5876
5877 5876 5875 5874 5873 5873 5872 5870 5868 5867 5866 5865 5865 5864 5864 5863 5863 5862 5862 5861 5861 5861 5861 5862 5862 5863 5863 5864 5865 5865 5866 5867 5868 5868 5869 5869 5869 5870 5870 5870 5870 5870 5870
5873 5873 5871 5871 5871 5870 5869 5868 5866 5865 5864 5863 5862 5862 5861 5861 5860 5859 5859 5858 5858 5858 5857 5857 5857 5857 5858 5858 5859 5860 5861 5862 5862 5862 5862 5863 5863 5864 5864 5864 5864 5864 5864
5869 5869 5868 5867 5867 5866 5866 5865 5863 5863 5862 5861 5860 5859 5858 5858 5857 5856 5856 5855 5855 5854 5853 5853 5853 5853 5853 5853 5853 5854 5855 5855 5856 5856 5857 5857 5857 5858 5858 5858 5858 5857 5857
5866 5867 5866 5866 5865 5864 5864 5863 5862 5860 5859 5858 5857 5856 5855 5854 5853 5853 5852 5852 5851 5850 5849 5848 5848 5847 5847 5847 5847 5848 5849 5850 5850 5851 5851 5851 5851 5852 5851 5851 5851 5850 5850
5865 5864 5864 5863 5863 5862 5861 5860 5859 5857 5856 5855 5854 5852 5851 5850 5850 5849 5848 5848 5847 5846 5845 5844 5843 5842 5841 5841 5842 5842 5844 5844 5845 5845 5845 5845 5845 5845 5845 5844 5843 5843 5842
5862 5862 5861 5860 5859 5859 5859 5857 5856 5854 5853 5852 5850 5849 5848 5847 5846 5845 5844 5843 5842 5842 5841 5840 5839 5837 5836 5836 5837 5838 5838 5839 5839 5840 5840 5839 5839 5838 5838 5837 5837 5836 5835
5859 5858 5858 5857 5856 5856 5855 5853 5852 5851 5850 5848 5847 5845 5844 5843 5842 5841 5840 5839 5838 5837 5836 5835 5834 5834 5833 5833 5833 5833 5834 5834 5834 5834 5833 5833 5832 5832 5831 5830 5829 5828 5827
5854 5854 5854 5853 5853 5852 5850 5850 5848 5847 5846 5845 5843 5842 5841 5839 5837 5836 5835 5834 5833 5832 5832 5831 5830 5830 5829 5829 5829 5829 5829 5829 5828 5828 5827 5827 5826 5825 5824 5823 5822 5821 5819
5850 5850 5850 5849 5849 5848 5847 5846 5845 5843 5842 5841 5839 5838 5836 5835 5833 5832 5831 5830 5829 5828 5827 5827 5826 5826 5825 5824 5824 5824 5823 5823 5823 5822 5821 5821 5820 5819 5817 5816 5815 5813 5811
5845 5845 5845 5844 5844 5843 5842 5841 5840 5839 5838 5836 5835 5834 5832 5831 5830 5828 5827 5826 5825 5824 5823 5822 5822 5821 5820 5820 5819 5819 5818 5817 5817 5816 5815 5814 5813 5812 5810 5809 5807 5805 5803
5840 5840 5840 5839 5839 5838 5837 5836 5835 5834 5832 5831 5830 5829 5828 5826 5825 5824 5822 5821 5820 5819 5818 5818 5817 5816 5815 5814 5814 5813 5812 5811 5810 5809 5808 5807 5805 5804 5802 5801 5799 5797 5795
5835 5835 5834 5834 5833 5832 5831 5830 5829 5828 5827 5825 5825 5824 5823 5821 5820 5819 5818 5817 5815 5814 5813 5812 5811 5811 5810 5809 5808 5807 5806 5805 5803 5802 5801 5799 5797 5796 5795 5793 5791 5789 5787
5829 5829 5829 5828 5828 5827 5826 5825 5824 5822 5821 5820 5819 5818 5817 5816 5815 5814 5813 5812 5810 5809 5808 5807 5806 5805 5804 5803 5802 5800 5799 5798 5796 5795 5793 5791 5789 5788 5786 5784 5782 5780 5777
5823 5823 5823 5822 5822 5821 5820 5819 5818 5817 5815 5815 5814 5813 5812 5811 5809 5808 5807 5806 5805 5804 5803 5801 5800 5799 5798 5797 5795 5794 5792 5791 5789 5787 5786 5784 5782 5780 5777 5775 5773 5770 5767
5816 5816 5816 5816 5816 5815 5814 5813 5811 5811 5810 5809 5808 5807 5806 5805 5804 5802 5801 5800 5799 5798 5797 5796 5794 5793 5792 5790 5789 5787 5785 5784 5782 5780 5778 5776 5773 5771 5768 5765 5763 5760 5757
5810 5810 5810 5810 5809 5808 5807 5806 5805 5804 5804 5803 5802 5801 5800 5799 5798 5796 5795 5794 5793 5792 5791 5789 5788 5786 5785 5783 5782 5780 5778 5776 5774 5772 5770 5767 5765 5762 5759 5756 5753 5750 5747